DENIZ EDLW-EDDG

Flight info

Callsign DENIZ
Flight time 0h 21m
Altitude
Route
Aircraft C172

Departure

Time 2026-04-15 14:44
Airport Dortmund Airport (EDLW)

Arrival

Time 2026-04-15 15:05
Airport Münster Osnabrück Airport (EDDG)
Time Latitude Longitude Altitude Speed Heading
2026-04-15 14:37 51.51253 7.60563 437 ft 0 kts 105°
2026-04-15 14:37 51.51259 7.60573 440 ft 6 kts 355°
2026-04-15 14:37 51.51260 7.60480 439 ft 14 kts 238°
2026-04-15 14:38 51.51202 7.60320 444 ft 20 kts 236°
2026-04-15 14:38 51.51177 7.60161 439 ft 15 kts
2026-04-15 14:38 51.51247 7.60307 432 ft 20 kts 61°
2026-04-15 14:38 51.51325 7.60528 439 ft 25 kts 61°
2026-04-15 14:39 51.51409 7.60768 426 ft 27 kts 60°
2026-04-15 14:39 51.51487 7.60991 429 ft 21 kts 59°
2026-04-15 14:39 51.51559 7.61052 425 ft 14 kts 342°
2026-04-15 14:39 51.51631 7.61194 428 ft 20 kts 61°
2026-04-15 14:40 51.51688 7.61357 427 ft 11 kts 60°
2026-04-15 14:40 51.51721 7.61449 423 ft 10 kts 61°
2026-04-15 14:40 51.51751 7.61534 426 ft 10 kts 58°
2026-04-15 14:40 51.51780 7.61617 420 ft 7 kts 59°
2026-04-15 14:41 51.51802 7.61679 419 ft 9 kts 61°
2026-04-15 14:41 51.51829 7.61754 414 ft 3 kts 59°
2026-04-15 14:41 51.51841 7.61788 414 ft 8 kts 60°
2026-04-15 14:41 51.51869 7.61870 414 ft 8 kts 61°
2026-04-15 14:42 51.51894 7.61941 413 ft 6 kts 59°
2026-04-15 14:42 51.51917 7.62004 412 ft 8 kts 60°
2026-04-15 14:42 51.51956 7.62115 413 ft 14 kts 59°
2026-04-15 14:42 51.52014 7.62281 411 ft 14 kts 60°
2026-04-15 14:43 51.52070 7.62401 411 ft 16 kts 11°
2026-04-15 14:43 51.52179 7.62317 414 ft 15 kts 328°
2026-04-15 14:43 51.52123 7.62047 414 ft 52 kts 240°
2026-04-15 14:43 51.51899 7.61382 516 ft 75 kts 236°
2026-04-15 14:44 51.51632 7.60647 753 ft 77 kts 238°
2026-04-15 14:44 51.51351 7.59896 990 ft 80 kts 239°
2026-04-15 14:44 51.51331 7.59042 1345 ft 85 kts 293°
2026-04-15 14:44 51.51889 7.58546 1482 ft 102 kts 351°
2026-04-15 14:45 51.52587 7.58402 1516 ft 101 kts 342°
2026-04-15 14:45 51.53223 7.57976 1499 ft 99 kts 333°
2026-04-15 14:45 51.53842 7.57554 1532 ft 94 kts 336°
2026-04-15 14:45 51.54461 7.57135 1564 ft 102 kts 333°
2026-04-15 14:46 51.55134 7.56632 1576 ft 110 kts 333°
2026-04-15 14:46 51.55816 7.56107 1584 ft 108 kts 332°
2026-04-15 14:46 51.56532 7.55556 1588 ft 120 kts 332°
2026-04-15 14:46 51.57292 7.54946 1471 ft 119 kts 329°
2026-04-15 14:47 51.57989 7.54347 1519 ft 112 kts 330°
2026-04-15 14:47 51.58680 7.53807 1523 ft 110 kts 338°
2026-04-15 14:47 51.59436 7.53590 1542 ft 112 kts 358°
2026-04-15 14:47 51.60247 7.53646 1492 ft 120 kts
2026-04-15 14:48 51.61084 7.53804 1513 ft 120 kts
2026-04-15 14:48 51.61910 7.53931 1534 ft 125 kts
2026-04-15 14:48 51.62788 7.54117 1496 ft 126 kts
2026-04-15 14:48 51.63651 7.54298 1495 ft 124 kts
2026-04-15 14:49 51.64503 7.54501 1495 ft 124 kts
2026-04-15 14:49 51.65357 7.54703 1496 ft 123 kts
2026-04-15 14:49 51.66204 7.54901 1489 ft 123 kts
2026-04-15 14:49 51.67038 7.55099 1491 ft 120 kts
2026-04-15 14:50 51.67858 7.55279 1490 ft 120 kts
2026-04-15 14:50 51.68696 7.55473 1502 ft 124 kts
2026-04-15 14:50 51.69568 7.55669 1499 ft 126 kts
2026-04-15 14:50 51.70445 7.55855 1498 ft 127 kts
2026-04-15 14:51 51.71322 7.56048 1491 ft 127 kts
2026-04-15 14:51 51.72202 7.56225 1498 ft 128 kts
2026-04-15 14:51 51.73085 7.56428 1501 ft 128 kts
2026-04-15 14:51 51.73965 7.56621 1494 ft 127 kts
2026-04-15 14:52 51.74840 7.56799 1497 ft 126 kts
2026-04-15 14:52 51.75716 7.57003 1490 ft 128 kts
2026-04-15 14:52 51.76602 7.57190 1500 ft 128 kts
2026-04-15 14:52 51.77488 7.57383 1505 ft 129 kts
2026-04-15 14:53 51.78383 7.57562 1508 ft 129 kts
2026-04-15 14:53 51.79268 7.57760 1498 ft 128 kts
2026-04-15 14:53 51.80133 7.57957 1488 ft 126 kts
2026-04-15 14:53 51.80977 7.58164 1498 ft 121 kts
2026-04-15 14:54 51.81820 7.58361 1492 ft 122 kts
2026-04-15 14:54 51.82661 7.58565 1504 ft 124 kts 13°
2026-04-15 14:54 51.83496 7.58864 1499 ft 121 kts 13°
2026-04-15 14:54 51.84325 7.59172 1500 ft 122 kts 13°
2026-04-15 14:55 51.85142 7.59568 1503 ft 123 kts 19°
2026-04-15 14:55 51.85968 7.59977 1507 ft 125 kts 19°
2026-04-15 14:55 51.86797 7.60383 1501 ft 125 kts 18°
2026-04-15 14:55 51.87620 7.60802 1504 ft 124 kts 19°
2026-04-15 14:56 51.88440 7.61220 1500 ft 124 kts 18°
2026-04-15 14:56 51.89251 7.61631 1505 ft 123 kts 18°
2026-04-15 14:56 51.90075 7.62058 1495 ft 123 kts 17°
2026-04-15 14:56 51.90880 7.62476 1498 ft 123 kts 18°
2026-04-15 14:57 51.91696 7.62895 1504 ft 123 kts 19°
2026-04-15 14:57 51.92512 7.63305 1507 ft 123 kts 19°
2026-04-15 14:57 51.93331 7.63713 1505 ft 123 kts 18°
2026-04-15 14:57 51.94152 7.64133 1508 ft 124 kts 19°
2026-04-15 14:58 51.94980 7.64548 1507 ft 126 kts 14°
2026-04-15 14:58 51.95828 7.64846 1511 ft 125 kts 13°
2026-04-15 14:58 51.96679 7.65153 1504 ft 124 kts 13°
2026-04-15 14:58 51.97522 7.65465 1511 ft 123 kts 14°
2026-04-15 14:59 51.98368 7.65786 1506 ft 125 kts 13°
2026-04-15 14:59 51.99213 7.66102 1503 ft 125 kts 14°
2026-04-15 14:59 52.00065 7.66410 1507 ft 125 kts 14°
2026-04-15 14:59 52.00904 7.66719 1507 ft 122 kts 14°
2026-04-15 15:00 52.01744 7.67024 1506 ft 124 kts 14°
2026-04-15 15:00 52.02572 7.67432 1503 ft 125 kts 18°
2026-04-15 15:00 52.03398 7.67860 1482 ft 124 kts 17°
2026-04-15 15:00 52.04217 7.68160 1481 ft 120 kts 13°
2026-04-15 15:01 52.05043 7.68453 1474 ft 119 kts 11°
2026-04-15 15:01 52.05860 7.68550 1483 ft 116 kts 359°
2026-04-15 15:01 52.06658 7.68451 1461 ft 116 kts 355°
2026-04-15 15:01 52.07467 7.68320 1414 ft 116 kts 352°
2026-04-15 15:02 52.08264 7.68180 1308 ft 117 kts 354°
2026-04-15 15:02 52.09073 7.68015 1198 ft 117 kts 355°
2026-04-15 15:02 52.09850 7.68029 1130 ft 108 kts
2026-04-15 15:02 52.10585 7.68137 1076 ft 104 kts
2026-04-15 15:03 52.11271 7.68315 1045 ft 96 kts 21°
2026-04-15 15:03 52.11708 7.69021 1003 ft 86 kts 74°
2026-04-15 15:03 52.11906 7.69933 987 ft 84 kts 75°
2026-04-15 15:03 52.12046 7.70511 947 ft 84 kts 71°
2026-04-15 15:04 52.12364 7.71334 909 ft 87 kts 44°
2026-04-15 15:04 52.12941 7.71539 884 ft 89 kts 348°
2026-04-15 15:04 52.13718 7.71163 659 ft 86 kts 338°
2026-04-15 15:04 52.13941 7.70725 586 ft 74 kts 263°
2026-04-15 15:05 52.13791 7.69976 411 ft 69 kts 241°
2026-04-15 15:05 52.13624 7.69244 248 ft 70 kts 245°
2026-04-15 15:05 52.13482 7.68579 162 ft 49 kts 250°
2026-04-15 15:05 52.13393 7.68264 164 ft 19 kts 191°
2026-04-15 15:06 52.13284 7.68305 162 ft 6 kts 159°
2026-04-15 15:06 52.13199 7.68351 162 ft 18 kts 161°
2026-04-15 15:06 52.13105 7.68368 162 ft 11 kts 258°
2026-04-15 15:07 52.13105 7.68305 162 ft 0 kts 273°